Time,TemperatureF,DewpointF,PressureIn,WindDirection,WindDirectionDegrees,WindSpeedMPH,WindSpeedGustMPH,Humidity,HourlyPrecipIn,Conditions,Clouds,dailyrainin,SoftwareType,DateUTC
2013-06-07 00:01:00,63.4,56.1,29.85,NE,45,3.0,5.0,77,0.00,,,0.00,Wunderground v.1.15,2013-06-07 04:01:00,
2013-06-07 00:04:00,63.4,56.1,29.85,North,1,3.0,5.0,77,0.00,,,0.00,Wunderground v.1.15,2013-06-07 04:04:00,
2013-06-07 00:06:00,63.4,56.1,29.85,NE,50,3.0,5.0,77,0.00,,,0.00,Wunderground v.1.15,2013-06-07 04:06:00,
2013-06-07 00:09:00,63.3,56.0,29.85,NE,41,3.0,5.0,77,0.00,,,0.00,Wunderground v.1.15,2013-06-07 04:09:00,
2013-06-07 00:10:00,63.3,56.0,29.86,NE,46,2.0,2.0,77,0.00,,,0.00,Wunderground v.1.15,2013-06-07 04:10:00,
2013-06-07 00:16:00,63.2,56.2,29.86,NNE,30,2.0,5.0,78,0.00,,,0.00,Wunderground v.1.15,2013-06-07 04:16:00,
2013-06-07 00:22:00,63.2,56.2,29.86,NE,50,3.0,5.0,78,0.00,,,0.00,Wunderground v.1.15,2013-06-07 04:22:00,
2013-06-07 00:28:00,63.1,56.5,29.86,NE,44,3.0,5.0,79,0.00,,,0.00,Wunderground v.1.15,2013-06-07 04:28:00,
2013-06-07 00:34:00,63.0,56.4,29.86,NNE,29,3.0,5.0,79,0.00,,,0.00,Wunderground v.1.15,2013-06-07 04:34:00,
2013-06-07 00:40:00,62.9,56.6,29.86,NE,48,3.0,5.0,80,0.00,,,0.00,Wunderground v.1.15,2013-06-07 04:40:00,
2013-06-07 00:46:00,62.6,56.7,29.87,North,11,3.0,5.0,81,0.00,,,0.00,Wunderground v.1.15,2013-06-07 04:46:00,
2013-06-07 00:51:00,62.4,56.8,29.87,NNE,30,3.0,5.0,82,0.00,,,0.00,Wunderground v.1.15,2013-06-07 04:51:00,
2013-06-07 00:57:00,62.3,56.7,29.86,NE,51,4.0,7.0,82,0.00,,,0.00,Wunderground v.1.15,2013-06-07 04:57:00,
2013-06-07 01:03:00,62.1,56.9,29.86,NE,44,3.0,5.0,83,0.00,,,0.00,Wunderground v.1.15,2013-06-07 05:03:00,
2013-06-07 01:09:00,61.8,56.6,29.86,NE,43,3.0,5.0,83,0.00,,,0.00,Wunderground v.1.15,2013-06-07 05:09:00,
2013-06-07 01:15:00,61.7,56.5,29.86,NE,55,3.0,5.0,83,0.00,,,0.00,Wunderground v.1.15,2013-06-07 05:15:00,
2013-06-07 01:21:00,61.6,56.4,29.87,SSE,158,3.0,5.0,83,0.00,,,0.00,Wunderground v.1.15,2013-06-07 05:21:00,
2013-06-07 01:27:00,61.4,56.2,29.86,NNE,27,3.0,5.0,83,0.00,,,0.00,Wunderground v.1.15,2013-06-07 05:27:00,
2013-06-07 01:33:00,61.3,56.4,29.87,SE,127,3.0,5.0,84,0.00,,,0.00,Wunderground v.1.15,2013-06-07 05:33:00,
2013-06-07 01:38:00,61.1,56.2,29.87,NW,315,2.0,5.0,84,0.00,,,0.00,Wunderground v.1.15,2013-06-07 05:38:00,
2013-06-07 01:44:00,60.8,56.3,29.86,NE,44,2.0,5.0,85,0.00,,,0.00,Wunderground v.1.15,2013-06-07 05:44:00,
2013-06-07 01:50:00,60.7,56.2,29.86,NW,309,3.0,3.0,85,0.00,,,0.00,Wunderground v.1.15,2013-06-07 05:50:00,
2013-06-07 01:56:00,60.6,56.1,29.86,NE,36,3.0,5.0,85,0.00,,,0.00,Wunderground v.1.15,2013-06-07 05:56:00,
2013-06-07 02:02:00,60.4,56.2,29.86,NE,49,3.0,5.0,86,0.00,,,0.00,Wunderground v.1.15,2013-06-07 06:02:00,
2013-06-07 02:08:00,60.4,56.2,29.86,NE,45,3.0,5.0,86,0.00,,,0.00,Wunderground v.1.15,2013-06-07 06:08:00,
2013-06-07 02:14:00,60.2,56.0,29.86,North,9,2.0,5.0,86,0.00,,,0.00,Wunderground v.1.15,2013-06-07 06:14:00,
2013-06-07 02:20:00,60.1,55.9,29.86,NE,44,3.0,3.0,86,0.00,,,0.00,Wunderground v.1.15,2013-06-07 06:20:00,
2013-06-07 02:25:00,60.0,55.8,29.86,NE,42,3.0,5.0,86,0.00,,,0.00,Wunderground v.1.15,2013-06-07 06:25:00,
2013-06-07 02:31:00,59.7,55.8,29.86,NE,43,1.0,5.0,87,0.00,,,0.00,Wunderground v.1.15,2013-06-07 06:31:00,
2013-06-07 02:37:00,59.6,55.7,29.86,NW,307,1.0,5.0,87,0.00,,,0.00,Wunderground v.1.15,2013-06-07 06:37:00,
2013-06-07 02:43:00,59.5,55.6,29.86,NE,46,2.0,5.0,87,0.00,,,0.00,Wunderground v.1.15,2013-06-07 06:43:00,
2013-06-07 02:49:00,59.3,55.7,29.86,NE,43,1.0,5.0,88,0.00,,,0.00,Wunderground v.1.15,2013-06-07 06:49:00,
2013-06-07 02:55:00,59.1,55.5,29.86,NNE,26,1.0,5.0,88,0.00,,,0.00,Wunderground v.1.15,2013-06-07 06:55:00,
2013-06-07 03:00:00,59.0,55.4,29.86,NE,37,1.0,5.0,88,0.00,,,0.00,Wunderground v.1.15,2013-06-07 07:00:00,
2013-06-07 03:07:00,59.0,55.8,29.85,NNW,335,2.0,5.0,89,0.00,,,0.00,Wunderground v.1.15,2013-06-07 07:07:00,
2013-06-07 03:12:00,58.9,55.7,29.85,NE,50,2.0,5.0,89,0.00,,,0.00,Wunderground v.1.15,2013-06-07 07:12:00,
2013-06-07 03:18:00,58.9,55.7,29.85,NE,50,2.0,5.0,89,0.00,,,0.00,Wunderground v.1.15,2013-06-07 07:18:00,
2013-06-07 03:24:00,58.9,55.7,29.85,NNE,26,2.0,5.0,89,0.00,,,0.00,Wunderground v.1.15,2013-06-07 07:24:00,
2013-06-07 03:30:00,58.9,55.7,29.85,NNE,21,3.0,5.0,89,0.00,,,0.00,Wunderground v.1.15,2013-06-07 07:30:00,
2013-06-07 03:35:00,58.9,55.7,29.85,ENE,58,3.0,5.0,89,0.00,,,0.00,Wunderground v.1.15,2013-06-07 07:35:00,
2013-06-07 03:41:00,58.8,55.6,29.85,North,4,3.0,5.0,89,0.00,,,0.00,Wunderground v.1.15,2013-06-07 07:41:00,
2013-06-07 03:47:00,58.8,55.6,29.85,NE,37,2.0,5.0,89,0.00,,,0.00,Wunderground v.1.15,2013-06-07 07:47:00,
2013-06-07 03:52:00,58.6,55.4,29.85,NE,39,3.0,5.0,89,0.00,,,0.00,Wunderground v.1.15,2013-06-07 07:52:00,
2013-06-07 03:58:00,58.6,55.4,29.85,NE,44,2.0,5.0,89,0.00,,,0.00,Wunderground v.1.15,2013-06-07 07:58:00,
2013-06-07 04:04:00,58.6,55.4,29.86,ENE,61,2.0,5.0,89,0.00,,,0.00,Wunderground v.1.15,2013-06-07 08:04:00,
2013-06-07 04:10:00,58.6,55.4,29.85,NNE,13,3.0,3.0,89,0.00,,,0.00,Wunderground v.1.15,2013-06-07 08:10:00,
2013-06-07 04:16:00,58.6,55.4,29.86,ENE,76,3.0,5.0,89,0.00,,,0.00,Wunderground v.1.15,2013-06-07 08:16:00,
2013-06-07 04:22:00,58.6,55.4,29.86,NE,45,2.0,5.0,89,0.00,,,0.00,Wunderground v.1.15,2013-06-07 08:22:00,
2013-06-07 04:27:00,58.5,55.3,29.85,NE,46,2.0,5.0,89,0.00,,,0.00,Wunderground v.1.15,2013-06-07 08:27:00,
2013-06-07 04:33:00,58.5,55.3,29.86,NE,48,3.0,5.0,89,0.00,,,0.00,Wunderground v.1.15,2013-06-07 08:33:00,
2013-06-07 04:39:00,58.4,55.5,29.86,NE,36,3.0,6.0,90,0.00,,,0.00,Wunderground v.1.15,2013-06-07 08:39:00,
2013-06-07 04:44:00,58.3,55.4,29.85,NE,49,3.0,5.0,90,0.00,,,0.00,Wunderground v.1.15,2013-06-07 08:44:00,
2013-06-07 04:50:00,58.3,55.4,29.85,NNE,33,3.0,5.0,90,0.00,,,0.00,Wunderground v.1.15,2013-06-07 08:50:00,
2013-06-07 04:56:00,58.2,55.3,29.86,North,6,3.0,5.0,90,0.00,,,0.00,Wunderground v.1.15,2013-06-07 08:56:00,
2013-06-07 05:02:00,58.2,55.3,29.86,NNE,30,3.0,5.0,90,0.00,,,0.00,Wunderground v.1.15,2013-06-07 09:02:00,
2013-06-07 05:07:00,58.2,55.3,29.86,NE,41,3.0,5.0,90,0.00,,,0.00,Wunderground v.1.15,2013-06-07 09:07:00,
2013-06-07 05:13:00,58.2,55.3,29.86,NE,44,2.0,5.0,90,0.00,,,0.00,Wunderground v.1.15,2013-06-07 09:13:00,
2013-06-07 05:19:00,58.1,55.2,29.86,NE,39,2.0,5.0,90,0.00,,,0.00,Wunderground v.1.15,2013-06-07 09:19:00,
2013-06-07 05:24:00,58.1,55.2,29.86,NNE,33,2.0,5.0,90,0.00,,,0.00,Wunderground v.1.15,2013-06-07 09:24:00,
2013-06-07 05:30:00,58.1,55.2,29.86,NE,46,3.0,3.0,90,0.00,,,0.00,Wunderground v.1.15,2013-06-07 09:30:00,
2013-06-07 05:36:00,58.2,55.3,29.86,NNE,30,3.0,5.0,90,0.00,,,0.00,Wunderground v.1.15,2013-06-07 09:36:00,
2013-06-07 05:42:00,58.1,55.2,29.86,NE,36,2.0,5.0,90,0.00,,,0.00,Wunderground v.1.15,2013-06-07 09:42:00,
2013-06-07 05:48:00,58.1,55.2,29.86,NE,50,2.0,5.0,90,0.00,,,0.00,Wunderground v.1.15,2013-06-07 09:48:00,
2013-06-07 05:54:00,58.0,55.1,29.86,North,3,2.0,5.0,90,0.00,,,0.00,Wunderground v.1.15,2013-06-07 09:54:00,
2013-06-07 05:59:00,58.0,55.1,29.86,ENE,61,2.0,5.0,90,0.00,,,0.00,Wunderground v.1.15,2013-06-07 09:59:00,
2013-06-07 06:05:00,57.9,55.0,29.86,ENE,73,2.0,5.0,90,0.00,,,0.00,Wunderground v.1.15,2013-06-07 10:05:00,
2013-06-07 06:11:00,57.8,54.9,29.86,NE,39,2.0,5.0,90,0.00,,,0.00,Wunderground v.1.15,2013-06-07 10:11:00,
2013-06-07 06:17:00,57.8,54.9,29.86,NE,46,3.0,5.0,90,0.00,,,0.00,Wunderground v.1.15,2013-06-07 10:17:00,
2013-06-07 06:22:00,57.8,55.2,29.86,NE,50,2.0,5.0,91,0.00,,,0.00,Wunderground v.1.15,2013-06-07 10:22:00,
2013-06-07 06:28:00,57.8,55.2,29.87,NE,41,2.0,5.0,91,0.00,,,0.00,Wunderground v.1.15,2013-06-07 10:28:00,
2013-06-07 06:34:00,57.8,55.2,29.87,NE,46,2.0,5.0,91,0.00,,,0.00,Wunderground v.1.15,2013-06-07 10:34:00,
2013-06-07 06:39:00,57.7,55.1,29.87,NE,44,2.0,5.0,91,0.00,,,0.00,Wunderground v.1.15,2013-06-07 10:39:00,
2013-06-07 06:45:00,57.7,55.1,29.87,NNE,27,3.0,5.0,91,0.00,,,0.00,Wunderground v.1.15,2013-06-07 10:45:00,
2013-06-07 06:51:00,57.7,55.1,29.87,North,351,3.0,5.0,91,0.00,,,0.00,Wunderground v.1.15,2013-06-07 10:51:00,
2013-06-07 06:57:00,57.7,55.1,29.87,NNW,345,2.0,5.0,91,0.00,,,0.00,Wunderground v.1.15,2013-06-07 10:57:00,
2013-06-07 07:02:00,57.7,55.1,29.87,NE,42,2.0,5.0,91,0.00,,,0.00,Wunderground v.1.15,2013-06-07 11:02:00,
2013-06-07 07:08:00,57.8,55.2,29.87,NE,45,2.0,5.0,91,0.00,,,0.00,Wunderground v.1.15,2013-06-07 11:08:00,
2013-06-07 07:14:00,57.8,55.2,29.87,NNE,33,2.0,5.0,91,0.00,,,0.00,Wunderground v.1.15,2013-06-07 11:14:00,
2013-06-07 07:20:00,57.8,55.2,29.87,NE,40,2.0,5.0,91,0.00,,,0.00,Wunderground v.1.15,2013-06-07 11:20:00,
2013-06-07 07:26:00,57.9,55.3,29.88,ENE,68,2.0,5.0,91,0.00,,,0.00,Wunderground v.1.15,2013-06-07 11:26:00,
2013-06-07 07:32:00,57.9,55.3,29.88,NE,51,2.0,5.0,91,0.00,,,0.00,Wunderground v.1.15,2013-06-07 11:32:00,
2013-06-07 07:38:00,58.0,55.1,29.87,ENE,68,2.0,5.0,90,0.00,,,0.00,Wunderground v.1.15,2013-06-07 11:38:00,
2013-06-07 07:44:00,58.1,55.2,29.87,NE,49,2.0,5.0,90,0.00,,,0.00,Wunderground v.1.15,2013-06-07 11:44:00,
2013-06-07 07:49:00,58.2,55.3,29.87,North,356,3.0,5.0,90,0.00,,,0.00,Wunderground v.1.15,2013-06-07 11:49:00,
2013-06-07 07:55:00,58.2,55.0,29.88,NE,44,3.0,5.0,89,0.00,,,0.00,Wunderground v.1.15,2013-06-07 11:55:00,
2013-06-07 08:00:00,58.3,55.1,29.88,NNE,20,3.0,5.0,89,0.00,,,0.00,Wunderground v.1.15,2013-06-07 12:00:00,
2013-06-07 08:06:00,58.4,54.9,29.88,North,356,3.0,6.0,88,0.00,,,0.00,Wunderground v.1.15,2013-06-07 12:06:00,
2013-06-07 08:12:00,58.5,54.6,29.88,NE,43,5.0,8.0,87,0.00,,,0.00,Wunderground v.1.15,2013-06-07 12:12:00,
2013-06-07 08:18:00,58.6,54.7,29.88,NNW,347,5.0,8.0,87,0.00,,,0.00,Wunderground v.1.15,2013-06-07 12:18:00,
2013-06-07 08:23:00,58.8,54.6,29.88,North,11,4.0,6.0,86,0.00,,,0.00,Wunderground v.1.15,2013-06-07 12:23:00,
2013-06-07 08:29:00,58.7,54.2,29.88,NE,51,5.0,9.0,85,0.00,,,0.00,Wunderground v.1.15,2013-06-07 12:29:00,
2013-06-07 08:34:00,58.8,54.3,29.88,NE,47,5.0,8.0,85,0.00,,,0.00,Wunderground v.1.15,2013-06-07 12:34:00,
2013-06-07 08:40:00,58.8,54.0,29.88,NE,44,5.0,5.0,84,0.00,,,0.00,Wunderground v.1.15,2013-06-07 12:40:00,
2013-06-07 08:45:00,58.9,53.7,29.88,NE,44,6.0,8.0,83,0.00,,,0.00,Wunderground v.1.15,2013-06-07 12:45:00,
2013-06-07 08:51:00,58.9,54.1,29.88,NE,34,6.0,6.0,84,0.00,,,0.00,Wunderground v.1.15,2013-06-07 12:51:00,
2013-06-07 08:57:00,59.1,53.9,29.88,North,355,6.0,8.0,83,0.00,,,0.00,Wunderground v.1.15,2013-06-07 12:57:00,
2013-06-07 09:03:00,59.3,54.1,29.88,ENE,68,5.0,6.0,83,0.00,,,0.00,Wunderground v.1.15,2013-06-07 13:03:00,
2013-06-07 09:09:00,59.4,54.2,29.88,NE,49,5.0,11.0,83,0.00,,,0.00,Wunderground v.1.15,2013-06-07 13:09:00,
2013-06-07 09:14:00,59.4,53.9,29.88,NE,43,6.0,10.0,82,0.00,,,0.00,Wunderground v.1.15,2013-06-07 13:14:00,
2013-06-07 09:20:00,59.6,54.1,29.88,NE,46,7.0,7.0,82,0.00,,,0.00,Wunderground v.1.15,2013-06-07 13:20:00,
2013-06-07 09:25:00,60.1,54.9,29.88,NE,41,5.0,8.0,83,0.00,,,0.00,Wunderground v.1.15,2013-06-07 13:25:00,
2013-06-07 09:30:00,60.2,54.0,29.88,ENE,61,5.0,5.0,80,0.00,,,0.00,Wunderground v.1.15,2013-06-07 13:30:00,
2013-06-07 09:36:00,60.4,54.5,29.89,NE,51,6.0,6.0,81,0.00,,,0.00,Wunderground v.1.15,2013-06-07 13:36:00,
2013-06-07 09:42:00,60.7,54.8,29.89,NNE,32,6.0,8.0,81,0.00,,,0.00,Wunderground v.1.15,2013-06-07 13:42:00,
2013-06-07 09:47:00,61.1,54.9,29.89,NE,49,5.0,8.0,80,0.00,,,0.00,Wunderground v.1.15,2013-06-07 13:47:00,
2013-06-07 09:53:00,61.1,54.2,29.89,NE,46,5.0,9.0,78,0.00,,,0.00,Wunderground v.1.15,2013-06-07 13:53:00,
2013-06-07 09:59:00,61.2,54.6,29.89,NNE,18,7.0,10.0,79,0.00,,,0.00,Wunderground v.1.15,2013-06-07 13:59:00,
2013-06-07 10:05:00,61.3,54.4,29.89,North,3,8.0,10.0,78,0.00,,,0.00,Wunderground v.1.15,2013-06-07 14:05:00,
2013-06-07 10:11:00,61.3,54.7,29.89,NE,45,8.0,8.0,79,0.00,,,0.00,Wunderground v.1.15,2013-06-07 14:11:00,
2013-06-07 10:17:00,61.9,55.0,29.89,North,8,6.0,9.0,78,0.00,,,0.00,Wunderground v.1.15,2013-06-07 14:17:00,
2013-06-07 10:23:00,62.4,54.4,29.89,NE,51,4.0,7.0,75,0.00,,,0.00,Wunderground v.1.15,2013-06-07 14:23:00,
2013-06-07 10:29:00,63.2,55.5,29.89,NE,51,4.0,7.0,76,0.00,,,0.00,Wunderground v.1.15,2013-06-07 14:29:00,
2013-06-07 10:35:00,63.2,54.4,29.89,NE,38,5.0,10.0,73,0.00,,,0.00,Wunderground v.1.15,2013-06-07 14:35:00,
2013-06-07 10:40:00,63.1,55.0,29.88,East,79,6.0,6.0,75,0.00,,,0.00,Wunderground v.1.15,2013-06-07 14:40:00,
2013-06-07 10:47:00,63.1,54.7,29.88,NE,51,5.0,7.0,74,0.00,,,0.00,Wunderground v.1.15,2013-06-07 14:47:00,
2013-06-07 10:53:00,63.8,55.7,29.88,North,8,5.0,9.0,75,0.00,,,0.00,Wunderground v.1.15,2013-06-07 14:53:00,
2013-06-07 10:58:00,63.8,55.4,29.88,NE,48,5.0,9.0,74,0.00,,,0.00,Wunderground v.1.15,2013-06-07 14:58:00,
2013-06-07 11:04:00,63.6,55.2,29.88,NNE,30,6.0,12.0,74,0.00,,,0.00,Wunderground v.1.15,2013-06-07 15:04:00,
2013-06-07 11:10:00,63.8,55.7,29.88,NNE,18,6.0,8.0,75,0.00,,,0.00,Wunderground v.1.15,2013-06-07 15:10:00,
2013-06-07 11:15:00,63.9,55.4,29.88,NNE,18,5.0,8.0,74,0.00,,,0.00,Wunderground v.1.15,2013-06-07 15:15:00,
2013-06-07 11:22:00,64.3,55.8,29.88,NE,44,6.0,7.0,74,0.00,,,0.00,Wunderground v.1.15,2013-06-07 15:22:00,
2013-06-07 11:28:00,64.7,55.8,29.88,North,349,5.0,7.0,73,0.00,,,0.00,Wunderground v.1.15,2013-06-07 15:28:00,
2013-06-07 11:34:00,64.7,55.8,29.88,NNE,31,5.0,10.0,73,0.00,,,0.00,Wunderground v.1.15,2013-06-07 15:34:00,
2013-06-07 11:40:00,64.6,56.1,29.88,NNE,18,7.0,7.0,74,0.00,,,0.00,Wunderground v.1.15,2013-06-07 15:40:00,
2013-06-07 11:46:00,65.2,56.7,29.88,NNW,333,6.0,7.0,74,0.00,,,0.00,Wunderground v.1.15,2013-06-07 15:46:00,
2013-06-07 11:52:00,65.2,55.9,29.88,North,357,7.0,7.0,72,0.00,,,0.00,Wunderground v.1.15,2013-06-07 15:52:00,
2013-06-07 11:58:00,65.3,56.4,29.88,NNE,32,8.0,11.0,73,0.00,,,0.00,Wunderground v.1.15,2013-06-07 15:58:00,
2013-06-07 12:04:00,65.6,56.3,29.88,NNE,26,7.0,11.0,72,0.00,,,0.00,Wunderground v.1.15,2013-06-07 16:04:00,
2013-06-07 12:10:00,66.2,57.3,29.88,North,11,7.0,7.0,73,0.00,,,0.00,Wunderground v.1.15,2013-06-07 16:10:00,
2013-06-07 12:15:00,66.6,56.5,29.88,NNW,346,7.0,10.0,70,0.00,,,0.00,Wunderground v.1.15,2013-06-07 16:15:00,
2013-06-07 12:21:00,66.4,56.7,29.88,NNW,335,8.0,8.0,71,0.00,,,0.00,Wunderground v.1.15,2013-06-07 16:21:00,
2013-06-07 12:27:00,66.4,56.3,29.88,NNE,15,9.0,10.0,70,0.00,,,0.00,Wunderground v.1.15,2013-06-07 16:27:00,
2013-06-07 12:32:00,66.7,56.6,29.87,North,6,8.0,11.0,70,0.00,,,0.00,Wunderground v.1.15,2013-06-07 16:32:00,
2013-06-07 12:38:00,67.2,56.7,29.87,North,9,7.0,11.0,69,0.00,,,0.00,Wunderground v.1.15,2013-06-07 16:38:00,
2013-06-07 12:44:00,67.0,56.5,29.87,North,4,9.0,10.0,69,0.00,,,0.00,Wunderground v.1.15,2013-06-07 16:44:00,
2013-06-07 12:49:00,67.0,56.1,29.87,NNE,23,9.0,13.0,68,0.00,,,0.00,Wunderground v.1.15,2013-06-07 16:49:00,
2013-06-07 12:55:00,67.3,57.6,29.87,North,354,8.0,14.0,71,0.00,,,0.00,Wunderground v.1.15,2013-06-07 16:55:00,
2013-06-07 13:00:00,67.3,57.6,29.87,NNW,340,9.0,9.0,71,0.00,,,0.00,Wunderground v.1.15,2013-06-07 17:00:00,
2013-06-07 13:07:00,67.2,56.7,29.87,NNW,337,7.0,13.0,69,0.00,,,0.00,Wunderground v.1.15,2013-06-07 17:07:00,
2013-06-07 13:12:00,67.9,57.4,29.88,NNW,328,7.0,7.0,69,0.00,,,0.00,Wunderground v.1.15,2013-06-07 17:12:00,
2013-06-07 13:18:00,68.1,56.3,29.88,NNE,12,7.0,14.0,66,0.00,,,0.00,Wunderground v.1.15,2013-06-07 17:18:00,
2013-06-07 13:24:00,67.9,56.5,29.88,North,350,6.0,12.0,67,0.00,,,0.00,Wunderground v.1.15,2013-06-07 17:24:00,
2013-06-07 13:30:00,67.9,56.9,29.87,North,9,6.0,9.0,68,0.00,,,0.00,Wunderground v.1.15,2013-06-07 17:30:00,
2013-06-07 13:36:00,68.5,57.1,29.87,North,359,7.0,10.0,67,0.00,,,0.00,Wunderground v.1.15,2013-06-07 17:36:00,
2013-06-07 13:41:00,68.4,56.6,29.87,North,357,8.0,9.0,66,0.00,,,0.00,Wunderground v.1.15,2013-06-07 17:41:00,
2013-06-07 13:47:00,68.6,57.2,29.87,NNW,343,8.0,10.0,67,0.00,,,0.00,Wunderground v.1.15,2013-06-07 17:47:00,
2013-06-07 13:52:00,68.9,56.6,29.86,NNE,30,8.0,8.0,65,0.00,,,0.00,Wunderground v.1.15,2013-06-07 17:52:00,
2013-06-07 13:58:00,68.9,56.2,29.87,NNE,14,9.0,12.0,64,0.00,,,0.00,Wunderground v.1.15,2013-06-07 17:58:00,
2013-06-07 14:04:00,69.0,56.3,29.86,NNE,33,7.0,11.0,64,0.00,,,0.00,Wunderground v.1.15,2013-06-07 18:04:00,
2013-06-07 14:10:00,69.2,57.8,29.86,North,1,8.0,10.0,67,0.00,,,0.00,Wunderground v.1.15,2013-06-07 18:10:00,
2013-06-07 14:16:00,69.4,56.7,29.86,NNW,340,7.0,10.0,64,0.00,,,0.00,Wunderground v.1.15,2013-06-07 18:16:00,
2013-06-07 14:22:00,69.4,55.4,29.86,NW,304,7.0,10.0,61,0.00,,,0.00,Wunderground v.1.15,2013-06-07 18:22:00,
2013-06-07 14:29:00,69.5,55.5,29.86,North,356,6.0,10.0,61,0.00,,,0.00,Wunderground v.1.15,2013-06-07 18:29:00,
2013-06-07 14:35:00,69.7,56.1,29.86,NNE,20,6.0,13.0,62,0.00,,,0.00,Wunderground v.1.15,2013-06-07 18:35:00,
2013-06-07 14:41:00,69.8,55.3,29.86,NNE,13,7.0,8.0,60,0.00,,,0.00,Wunderground v.1.15,2013-06-07 18:41:00,
2013-06-07 14:47:00,69.7,55.6,29.86,NE,37,7.0,9.0,61,0.00,,,0.00,Wunderground v.1.15,2013-06-07 18:47:00,
2013-06-07 14:53:00,69.9,56.7,29.86,NNE,20,6.0,7.0,63,0.00,,,0.00,Wunderground v.1.15,2013-06-07 18:53:00,
2013-06-07 14:58:00,69.9,56.3,29.86,NNW,335,6.0,10.0,62,0.00,,,0.00,Wunderground v.1.15,2013-06-07 18:58:00,
2013-06-07 15:04:00,70.2,57.0,29.86,NW,311,6.0,7.0,63,0.00,,,0.00,Wunderground v.1.15,2013-06-07 19:04:00,
2013-06-07 15:10:00,71.1,56.0,29.85,North,10,4.0,7.0,59,0.00,,,0.00,Wunderground v.1.15,2013-06-07 19:10:00,
2013-06-07 15:16:00,71.1,57.0,29.86,North,352,6.0,10.0,61,0.00,,,0.00,Wunderground v.1.15,2013-06-07 19:16:00,
2013-06-07 15:23:00,71.4,54.9,29.86,NNW,330,7.0,8.0,56,0.00,,,0.00,Wunderground v.1.15,2013-06-07 19:23:00,
2013-06-07 15:29:00,71.8,56.2,29.86,NNW,335,6.0,8.0,58,0.00,,,0.00,Wunderground v.1.15,2013-06-07 19:29:00,
2013-06-07 15:34:00,71.3,56.2,29.85,NNW,333,6.0,9.0,59,0.00,,,0.00,Wunderground v.1.15,2013-06-07 19:34:00,
2013-06-07 15:40:00,71.2,55.7,29.85,North,358,7.0,7.0,58,0.00,,,0.00,Wunderground v.1.15,2013-06-07 19:40:00,
2013-06-07 15:46:00,71.1,55.6,29.85,NNW,347,4.0,7.0,58,0.00,,,0.00,Wunderground v.1.15,2013-06-07 19:46:00,
2013-06-07 15:52:00,71.0,55.0,29.85,NE,39,3.0,8.0,57,0.00,,,0.00,Wunderground v.1.15,2013-06-07 19:52:00,
2013-06-07 15:58:00,70.9,55.4,29.85,NNW,330,5.0,8.0,58,0.00,,,0.00,Wunderground v.1.15,2013-06-07 19:58:00,
2013-06-07 16:04:00,71.0,55.5,29.85,NW,317,5.0,6.0,58,0.00,,,0.00,Wunderground v.1.15,2013-06-07 20:04:00,
2013-06-07 16:10:00,71.2,55.2,29.85,North,10,5.0,5.0,57,0.00,,,0.00,Wunderground v.1.15,2013-06-07 20:10:00,
2013-06-07 16:16:00,71.0,55.5,29.85,NNW,336,6.0,11.0,58,0.00,,,0.00,Wunderground v.1.15,2013-06-07 20:16:00,
2013-06-07 16:22:00,71.2,55.2,29.84,NNE,27,5.0,6.0,57,0.00,,,0.00,Wunderground v.1.15,2013-06-07 20:22:00,
2013-06-07 16:27:00,71.2,55.7,29.85,North,357,5.0,7.0,58,0.00,,,0.00,Wunderground v.1.15,2013-06-07 20:27:00,
2013-06-07 16:33:00,71.0,55.0,29.84,North,11,6.0,7.0,57,0.00,,,0.00,Wunderground v.1.15,2013-06-07 20:33:00,
2013-06-07 16:40:00,70.8,55.3,29.84,North,352,6.0,6.0,58,0.00,,,0.00,Wunderground v.1.15,2013-06-07 20:40:00,
2013-06-07 16:46:00,71.0,55.9,29.85,NNE,20,5.0,6.0,59,0.00,,,0.00,Wunderground v.1.15,2013-06-07 20:46:00,
2013-06-07 16:52:00,71.3,55.3,29.84,NNW,329,6.0,7.0,57,0.00,,,0.00,Wunderground v.1.15,2013-06-07 20:52:00,
2013-06-07 16:57:00,71.3,55.8,29.84,NW,319,7.0,12.0,58,0.00,,,0.00,Wunderground v.1.15,2013-06-07 20:57:00,
2013-06-07 17:02:00,72.0,56.4,29.84,NNW,335,6.0,9.0,58,0.00,,,0.00,Wunderground v.1.15,2013-06-07 21:02:00,
2013-06-07 17:08:00,71.6,56.0,29.84,NNE,15,6.0,10.0,58,0.00,,,0.00,Wunderground v.1.15,2013-06-07 21:08:00,
2013-06-07 17:14:00,71.5,55.5,29.84,North,360,6.0,10.0,57,0.00,,,0.00,Wunderground v.1.15,2013-06-07 21:14:00,
2013-06-07 17:20:00,71.3,55.3,29.84,NNW,340,7.0,7.0,57,0.00,,,0.00,Wunderground v.1.15,2013-06-07 21:20:00,
2013-06-07 17:27:00,71.2,55.7,29.84,NNW,338,6.0,7.0,58,0.00,,,0.00,Wunderground v.1.15,2013-06-07 21:27:00,
2013-06-07 17:32:00,71.2,54.7,29.84,NNW,329,6.0,7.0,56,0.00,,,0.00,Wunderground v.1.15,2013-06-07 21:32:00,
2013-06-07 17:40:00,71.1,55.6,29.84,North,352,6.0,12.0,58,0.00,,,0.00,Wunderground v.1.15,2013-06-07 21:40:00,
2013-06-07 17:46:00,70.9,55.9,29.84,North,352,6.0,12.0,59,0.00,,,0.00,Wunderground v.1.15,2013-06-07 21:46:00,
2013-06-07 17:52:00,70.7,55.7,29.84,NNE,24,7.0,7.0,59,0.00,,,0.00,Wunderground v.1.15,2013-06-07 21:52:00,
2013-06-07 17:59:00,70.8,56.7,29.84,NNW,338,7.0,10.0,61,0.00,,,0.00,Wunderground v.1.15,2013-06-07 21:59:00,
2013-06-07 18:05:00,70.7,55.7,29.84,NNE,16,7.0,11.0,59,0.00,,,0.00,Wunderground v.1.15,2013-06-07 22:05:00,
2013-06-07 18:12:00,70.7,56.1,29.84,North,8,8.0,8.0,60,0.00,,,0.00,Wunderground v.1.15,2013-06-07 22:12:00,
2013-06-07 18:18:00,70.8,55.3,29.84,NE,44,6.0,8.0,58,0.00,,,0.00,Wunderground v.1.15,2013-06-07 22:18:00,
2013-06-07 18:24:00,71.0,56.9,29.84,NNW,342,6.0,9.0,61,0.00,,,0.00,Wunderground v.1.15,2013-06-07 22:24:00,
2013-06-07 18:30:00,71.2,55.7,29.84,NNE,19,7.0,7.0,58,0.00,,,0.00,Wunderground v.1.15,2013-06-07 22:30:00,
2013-06-07 18:36:00,71.1,55.1,29.84,North,6,7.0,10.0,57,0.00,,,0.00,Wunderground v.1.15,2013-06-07 22:36:00,
2013-06-07 18:43:00,70.8,55.3,29.84,NNE,32,7.0,9.0,58,0.00,,,0.00,Wunderground v.1.15,2013-06-07 22:43:00,
2013-06-07 18:49:00,70.9,55.9,29.84,NNE,26,6.0,9.0,59,0.00,,,0.00,Wunderground v.1.15,2013-06-07 22:49:00,
2013-06-07 18:55:00,70.7,55.2,29.84,NNE,30,6.0,9.0,58,0.00,,,0.00,Wunderground v.1.15,2013-06-07 22:55:00,
2013-06-07 19:00:00,70.5,55.0,29.84,NNE,26,8.0,8.0,58,0.00,,,0.00,Wunderground v.1.15,2013-06-07 23:00:00,
2013-06-07 19:06:00,70.4,55.4,29.84,North,349,7.0,8.0,59,0.00,,,0.00,Wunderground v.1.15,2013-06-07 23:06:00,
2013-06-07 19:11:00,70.5,55.0,29.84,North,352,6.0,6.0,58,0.00,,,0.00,Wunderground v.1.15,2013-06-07 23:11:00,
2013-06-07 19:18:00,70.7,55.7,29.85,North,349,4.0,7.0,59,0.00,,,0.00,Wunderground v.1.15,2013-06-07 23:18:00,
2013-06-07 19:23:00,70.9,54.9,29.85,NNE,25,5.0,8.0,57,0.00,,,0.00,Wunderground v.1.15,2013-06-07 23:23:00,
2013-06-07 19:29:00,71.1,54.6,29.85,NNE,13,5.0,9.0,56,0.00,,,0.00,Wunderground v.1.15,2013-06-07 23:29:00,
2013-06-07 19:35:00,71.0,54.5,29.85,NE,48,5.0,7.0,56,0.00,,,0.00,Wunderground v.1.15,2013-06-07 23:35:00,
2013-06-07 19:41:00,70.8,54.8,29.85,NE,54,5.0,7.0,57,0.00,,,0.00,Wunderground v.1.15,2013-06-07 23:41:00,
2013-06-07 19:47:00,70.5,54.5,29.85,NNE,31,5.0,9.0,57,0.00,,,0.00,Wunderground v.1.15,2013-06-07 23:47:00,
2013-06-07 19:55:00,70.2,54.7,29.86,NE,46,6.0,8.0,58,0.00,,,0.00,Wunderground v.1.15,2013-06-07 23:55:00,
2013-06-07 20:00:00,70.1,54.6,29.86,North,359,5.0,10.0,58,0.00,,,0.00,Wunderground v.1.15,2013-06-08 00:00:00,
2013-06-07 20:06:00,70.0,55.0,29.86,North,11,6.0,10.0,59,0.00,,,0.00,Wunderground v.1.15,2013-06-08 00:06:00,
2013-06-07 20:12:00,69.9,54.9,29.86,NNE,23,5.0,6.0,59,0.00,,,0.00,Wunderground v.1.15,2013-06-08 00:12:00,
2013-06-07 20:18:00,69.9,54.9,29.87,NNE,26,5.0,8.0,59,0.00,,,0.00,Wunderground v.1.15,2013-06-08 00:18:00,
2013-06-07 20:24:00,69.7,54.7,29.87,North,354,5.0,8.0,59,0.00,,,0.00,Wunderground v.1.15,2013-06-08 00:24:00,
2013-06-07 20:30:00,69.6,54.6,29.87,NNE,19,5.0,5.0,59,0.00,,,0.00,Wunderground v.1.15,2013-06-08 00:30:00,
2013-06-07 20:36:00,69.8,54.8,29.87,NNE,13,5.0,7.0,59,0.00,,,0.00,Wunderground v.1.15,2013-06-08 00:36:00,
2013-06-07 20:44:00,69.7,55.2,29.87,NNE,29,4.0,5.0,60,0.00,,,0.00,Wunderground v.1.15,2013-06-08 00:44:00,
2013-06-07 20:50:00,69.5,55.0,29.87,NNE,23,4.0,4.0,60,0.00,,,0.00,Wunderground v.1.15,2013-06-08 00:50:00,
2013-06-07 20:56:00,69.3,55.3,29.87,NNE,26,4.0,6.0,61,0.00,,,0.00,Wunderground v.1.15,2013-06-08 00:56:00,
2013-06-07 21:03:00,68.9,54.9,29.87,NNE,18,5.0,6.0,61,0.00,,,0.00,Wunderground v.1.15,2013-06-08 01:03:00,
2013-06-07 21:09:00,68.5,54.5,29.87,NNE,25,6.0,8.0,61,0.00,,,0.00,Wunderground v.1.15,2013-06-08 01:09:00,
2013-06-07 21:15:00,68.2,54.7,29.87,North,4,5.0,6.0,62,0.00,,,0.00,Wunderground v.1.15,2013-06-08 01:15:00,
2013-06-07 21:21:00,67.9,54.4,29.87,North,10,5.0,5.0,62,0.00,,,0.00,Wunderground v.1.15,2013-06-08 01:21:00,
2013-06-07 21:27:00,67.6,54.6,29.88,NNE,20,5.0,5.0,63,0.00,,,0.00,Wunderground v.1.15,2013-06-08 01:27:00,
2013-06-07 21:33:00,67.2,54.2,29.88,NNE,13,5.0,6.0,63,0.00,,,0.00,Wunderground v.1.15,2013-06-08 01:33:00,
2013-06-07 21:38:00,67.1,54.5,29.88,North,4,5.0,7.0,64,0.00,,,0.00,Wunderground v.1.15,2013-06-08 01:38:00,
2013-06-07 21:43:00,66.8,54.2,29.88,North,358,5.0,6.0,64,0.00,,,0.00,Wunderground v.1.15,2013-06-08 01:43:00,
2013-06-07 21:49:00,66.4,54.3,29.88,NNE,18,4.0,6.0,65,0.00,,,0.00,Wunderground v.1.15,2013-06-08 01:49:00,
2013-06-07 21:55:00,66.2,54.1,29.88,NNE,18,5.0,7.0,65,0.00,,,0.00,Wunderground v.1.15,2013-06-08 01:55:00,
2013-06-07 22:00:00,66.0,54.3,29.88,NNE,27,6.0,6.0,66,0.00,,,0.00,Wunderground v.1.15,2013-06-08 02:00:00,
2013-06-07 22:07:00,65.7,54.0,29.89,NNE,23,6.0,7.0,66,0.00,,,0.00,Wunderground v.1.15,2013-06-08 02:07:00,
2013-06-07 22:12:00,65.5,53.8,29.89,NNE,18,6.0,6.0,66,0.00,,,0.00,Wunderground v.1.15,2013-06-08 02:12:00,
2013-06-07 22:18:00,65.3,54.1,29.89,North,355,5.0,6.0,67,0.00,,,0.00,Wunderground v.1.15,2013-06-08 02:18:00,
2013-06-07 22:24:00,65.0,54.2,29.89,NNE,32,4.0,5.0,68,0.00,,,0.00,Wunderground v.1.15,2013-06-08 02:24:00,
2013-06-07 22:30:00,64.7,54.3,29.90,NE,48,3.0,5.0,69,0.00,,,0.00,Wunderground v.1.15,2013-06-08 02:30:00,
2013-06-07 22:36:00,64.5,54.1,29.90,NE,34,5.0,9.0,69,0.00,,,0.00,Wunderground v.1.15,2013-06-08 02:36:00,
2013-06-07 22:42:00,64.3,54.3,29.90,NNW,340,5.0,6.0,70,0.00,,,0.00,Wunderground v.1.15,2013-06-08 02:42:00,
2013-06-07 22:48:00,64.0,54.4,29.90,NE,39,5.0,8.0,71,0.00,,,0.00,Wunderground v.1.15,2013-06-08 02:48:00,
2013-06-07 22:53:00,63.7,54.1,29.90,NNE,30,4.0,6.0,71,0.00,,,0.00,Wunderground v.1.15,2013-06-08 02:53:00,
2013-06-07 23:01:00,63.4,54.2,29.90,NE,49,4.0,7.0,72,0.00,,,0.00,Wunderground v.1.15,2013-06-08 03:01:00,
2013-06-07 23:06:00,63.2,54.0,29.90,NE,46,4.0,7.0,72,0.00,,,0.00,Wunderground v.1.15,2013-06-08 03:06:00,
2013-06-07 23:12:00,62.9,54.1,29.91,NE,49,3.0,5.0,73,0.00,,,0.00,Wunderground v.1.15,2013-06-08 03:12:00,
2013-06-07 23:17:00,62.7,54.3,29.90,NE,56,3.0,5.0,74,0.00,,,0.00,Wunderground v.1.15,2013-06-08 03:17:00,
2013-06-07 23:23:00,62.4,54.0,29.90,NE,37,3.0,5.0,74,0.00,,,0.00,Wunderground v.1.15,2013-06-08 03:23:00,
2013-06-07 23:29:00,62.2,54.2,29.91,NE,53,3.0,5.0,75,0.00,,,0.00,Wunderground v.1.15,2013-06-08 03:29:00,
2013-06-07 23:35:00,61.9,53.9,29.91,NE,37,3.0,7.0,75,0.00,,,0.00,Wunderground v.1.15,2013-06-08 03:35:00,
2013-06-07 23:41:00,61.6,54.0,29.91,SE,141,3.0,5.0,76,0.00,,,0.00,Wunderground v.1.15,2013-06-08 03:41:00,
2013-06-07 23:47:00,61.5,53.9,29.91,NE,53,3.0,7.0,76,0.00,,,0.00,Wunderground v.1.15,2013-06-08 03:47:00,
2013-06-07 23:53:00,61.2,53.6,29.91,NE,51,3.0,5.0,76,0.00,,,0.00,Wunderground v.1.15,2013-06-08 03:53:00,
2013-06-07 23:58:00,61.0,53.7,29.91,NE,39,3.0,5.0,77,0.00,,,0.00,Wunderground v.1.15,2013-06-08 03:58:00,